TIME,DELAY(SENSOR),PRES,T(CTD),SAL,OXYGEN,RAWTEMP,T(OPTODE),TCPHASE,FLUOR,BETA(BETA700),BETA(BETA412),BETA(BETA440),CDOM,C(CSC),ED(ED411.90),ED(ED443.80),ED(ED489.40),ED(ED554.70),LU(LU412.20),LU(LU443.80),LU(LU489.40),LU(LU555.00),COMP,TILTX,TILTX(TILTY),CHECK
1348327167,5806,496.8399963378906000,17.5247993469238280,36.4746017456054700,234.9844970703125000,185.2192993164062500,17.5313491821289060,31.7157096862792970,50,106,94,83,65,14741,2147483565,2147763218,2147560146,2147793956,2147309330,2147472228,2147714953,2148246272,587,7,13,63799
1348327278,5805,486.2900085449219000,17.6089000701904300,36.4903984069824200,236.1228942871093800,182.7642059326172000,17.6060695648193360,31.6275901794433600,50,107,93,82,66,14743,2147482971,2147764178,2147558939,2147796525,2147311652,2147472777,2147711405,2148244269,192,7,13,52696
1348327398,5804,475.0700073242187500,17.6742000579834000,36.5009002685546900,236.7935943603515600,180.4976959228515600,17.6750507354736330,31.5648002624511720,49,108,92,83,65,14742,2147483410,2147762112,2147557056,2147794121,2147314340,2147474578,2147710354,2148247003,3578,6,12,50709
1348327518,5804,463.8800048828125000,17.7549991607666000,36.5158004760742200,237.6408996582031200,177.9597930908203000,17.7522907257080080,31.4898109436035160,49,107,94,84,66,14740,2147486262,2147766418,2147558701,2147792676,2147315154,2147478875,2147709723,2148245430,3495,7,12,62594
1348327630,5805,453.4400024414062500,17.8026008605957030,36.5242996215820300,237.8211975097656200,176.3226928710937500,17.8021297454834000,31.4594192504882800,49,106,92,82,65,14743,2147485595,2147764050,2147557613,2147791232,2147306761,2147477741,2147707922,2148240713,246,7,12,4174
1348327750,5805,442.3200073242187500,17.8568992614746100,36.5327987670898440,238.2483062744140600,174.5643005371093800,17.8556594848632800,31.4153499603271500,50,107,93,83,66,14743,2147485220,2147764964,2147556763,2147791817,2147301165,2147478080,2147707922,2148242057,3508,7,13,45290
1348327871,5803,431.1000061035156000,17.9062004089355470,36.5401992797851560,238.3238983154297000,173.0144042968750000,17.9028491973876950,31.3909492492675780,49,108,93,84,65,14744,2147484845,2147763492,2147556900,2147793453,2147311652,2147479259,2147708672,2148245147,244,7,12,26573
1348327994,5805,419.7399902343750000,17.9463005065917970,36.5461997985839840,238.1690979003906200,171.6784973144531200,17.9435195922851560,31.3803405761718750,50,111,93,83,65,14743,2147483977,2147763766,2147556324,2147792384,2147317266,2147478445,2147712649,2148248384,518,7,13,62365
1348328114,5803,409.0100097656250000,18.0067005157470700,36.5532989501953100,236.9824066162109400,169.6607055664062500,18.0049591064453120,31.4096603393554700,50,108,93,84,65,14744,2147486006,2147765915,2147557586,2147789970,2147310628,2147478089,2147709110,2148243766,3539,7,13,35091
1348328236,5803,398.1900024414062500,18.0440998077392580,36.5595016479492200,236.8973999023437500,168.2810058593750000,18.0469799041748050,31.3950290679931640,50,110,93,84,66,14739,2147488987,2147760740,2147559460,2147790153,2147301723,2147474816,2147708352,2148241325,3019,7,13,14819
1348328356,5804,387.6000061035156000,18.0897006988525400,36.5644989013671900,236.3235931396484400,167.0222015380859400,18.0853099822998050,31.4054908752441400,50,110,93,84,65,14739,2147485321,2147764854,2147557403,2147791140,2147314596,2147477824,2147709092,2148241152,2296,7,13,63634
1348328487,5803,376.0599975585937500,18.1324996948242200,36.5693016052246100,235.8459014892578000,165.5413055419922000,18.1304092407226560,31.4085102081298830,50,110,92,84,66,14735,2147487734,2147765677,2147560685,2147790537,2147312283,2147478893,2147704612,2148242294,2164,7,13,21607
1348328610,5803,365.2200012207031000,18.1849002838134770,36.5749015808105500,235.5402069091797000,163.7604064941406200,18.1846599578857420,31.3990898132324220,50,110,93,84,65,14737,2147490733,2147764324,2147561161,2147792356,2147309220,2147475867,2147709193,2148241892,1982,7,13,64237
1348328730,5802,354.7000122070312500,18.2546005249023440,36.5819015502929700,234.5334014892578000,161.4665985107422000,18.2545394897460940,31.4167308807373050,50,109,93,84,66,14734,2147487817,2147765961,2147563968,2147790262,2147311616,2147477787,2147707364,2148237997,1882,7,13,20840
1348328863,5803,343.0599975585937500,18.2964000701904300,36.5857009887695300,233.8282012939453000,160.1459960937500000,18.2947692871093750,31.4328804016113280,50,108,94,84,66,14736,2147488886,2147769563,2147568192,2147787803,2147311369,2147479186,2147713517,2148238299,1459,7,13,9399
1348328983,5803,332.5799865722656000,18.3540000915527340,36.5871009826660160,232.8220977783203000,158.2734985351562500,18.3518295288085940,31.4566898345947270,50,110,94,82,65,14735,2147487616,2147768210,2147573056,2147790637,2147309933,2147478116,2147715995,2148237558,1303,7,12,59710
1348329114,5804,321.4400024414062500,18.4265003204345700,36.5960998535156250,230.7458953857422000,155.8921966552734400,18.4243907928466800,31.5257301330566400,49,108,91,82,67,14738,2147483812,2147768155,2147573915,2147790829,2147302866,2147482395,2147718464,2148238363,728,7,12,26001
1348329248,5802,310.5000000000000000,18.4955005645751950,36.5928001403808600,230.9904937744140600,153.6461944580078000,18.4928398132324220,31.4837608337402340,50,108,94,84,67,14737,2147490505,2147770358,2147579382,2147791780,2147310134,2147482176,2147721572,2148239753,2887,7,12,52628
1348329390,5803,299.1799926757812500,18.5608997344970700,36.5918006896972660,231.5549011230468800,151.3034973144531200,18.5642509460449220,31.4249000549316400,50,108,93,83,66,14740,2147491602,2147771364,2147588077,2147788342,2147313024,2147486948,2147725467,2148240109,2962,7,13,36203
1348329545,5805,285.7200012207031000,18.6599006652832030,36.5826988220214840,233.1546936035156200,148.2528991699218800,18.6572608947753900,31.3062896728515620,50,108,93,84,66,14741,2147491949,2147782336,2147610934,2147789659,2147308068,2147489490,2147738322,2148240557,2696,7,12,5014
1348329654,5799,274.8699951171875000,18.7716007232666000,36.5947990417480500,232.7465057373047000,144.4017944335937500,18.7746906280517580,31.2746105194091800,50,109,93,83,64,14739,2147491446,2147790418,2147629942,2147788964,2147299126,2147492946,2147747876,2148240896,2009,7,13,26115
1348329763,5802,264.3200073242187500,18.8395996093750000,36.5826988220214840,234.1497039794922000,142.3063964843750000,18.8386001586914060,31.1793403625488280,50,107,93,84,66,14738,2147494756,2147800438,2147659574,2147791405,2147309668,2147500690,2147763126,2148245156,1440,8,12,29415
1348329886,5803,252.6799926757812500,19.0331001281738280,36.5936012268066400,236.6871032714843800,136.1799011230468800,19.0255203247070300,30.9773197174072270,50,107,92,83,66,14740,2147495780,2147816768,2147698614,2147791835,2147304886,2147513334,2147786011,2148240502,1465,7,12,55323
1348329995,5802,242.6600036621093800,19.1156997680664060,36.5895004272460940,239.2709960937500000,133.3061981201172000,19.1132297515869140,30.8179092407226560,49,108,93,84,64,14740,2147500416,2147837851,2147743250,2147789622,2147305334,2147525028,2147813001,2148245101,890,7,12,39194
1348330128,5802,230.6300048828125000,19.1601009368896500,36.5803985595703100,244.8258972167968800,131.7713012695312500,19.1600894927978500,30.5422306060791000,50,105,93,84,64,14738,2147499181,2147864146,2147798957,2147787574,2147306459,2147545718,2147848521,2148248173,389,7,12,8767
1348330259,5804,218.9299926757812500,19.2513008117675780,36.5826988220214840,246.6278076171875000,128.5348968505859400,19.2588996887207030,30.4186801910400400,50,108,92,83,63,14738,2147509513,2147884086,2147828562,2147785618,2147306395,2147559762,2147866806,2148246564,3280,7,12,43054
1348330379,5804,208.1100006103515600,19.2978992462158200,36.5787010192871100,248.2572021484375000,127.4212036132812500,19.2929096221923830,30.3311004638671880,50,110,93,84,64,14740,2147524708,2147985764,2148045549,2147787520,2147316845,2147627657,2147993764,2148257042,2770,7,12,43710
1348330509,5803,197.2299957275390600,19.3502006530761720,36.5782012939453100,249.8253936767578000,125.5842971801757800,19.3490104675292970,30.2376804351806640,50,109,92,84,63,14739,2147545965,2148075766,2148224338,2147788196,2147324534,2147689737,2148101046,2148264859,2385,7,12,43595
1348330563,5804,192.9199981689453000,19.3631000518798830,36.5775985717773440,250.3332977294922000,125.1270980834961000,19.3629798889160160,30.2092800140380860,50,108,92,83,63,14739,2147552749,2148118299,2148304777,2147788781,2147326518,2147718134,2148149485,2148266998,2544,8,12,49043
1348330617,5803,188.6000061035156200,19.4020004272460940,36.5820999145507800,249.8686065673828000,123.9320983886718800,19.3994808197021500,30.2143707275390620,51,111,93,85,64,14737,2147562157,2148172059,2148408448,2147788105,2147342034,2147754148,2148207387,2148270491,2754,7,12,57326
1348330671,5805,184.3300018310547000,19.4157009124755860,36.5806999206543000,250.0679016113281200,123.3068008422851600,19.4185791015625000,30.1972694396972660,51,109,94,83,64,14734,2147583168,2148235922,2148525568,2147791680,2147355867,2147792000,2148274020,2148278381,2864,7,12,53120
1348330725,5804,180.1000061035156200,19.4444007873535160,36.5803985595703100,249.8719024658203000,122.5214004516601600,19.4425792694091800,30.1958999633789060,53,110,93,83,63,14737,2147606116,2148312237,2148663195,2147789476,2147355318,2147840265,2148353755,2148281728,2306,7,12,50627
1348330802,5801,174.7799987792968800,19.4799003601074220,36.5838012695312500,248.8777008056640600,121.3967971801757800,19.4769401550292970,30.2253303527832030,53,110,94,85,64,14735,2147637193,2148413805,2148846564,2147789211,2147377261,2147903177,2148456795,2148290934,1927,7,12,12652
1348330867,5804,170.8699951171875000,19.5317993164062500,36.5867004394531250,248.6829986572265600,119.6187973022461000,19.5312690734863280,30.2107601165771500,55,112,92,84,63,14736,2147670281,2148507712,2149008914,2147787721,2147387574,2147956370,2148543140,2148292269,1911,7,13,19992
1348330932,5803,167.0500030517578000,19.5823001861572270,36.5951004028320300,248.3117980957031200,118.0818023681640600,19.5782508850097660,30.2073192596435550,55,111,93,84,64,14733,2147699876,2148607890,2149166811,2147792292,2147405430,2148009362,2148626221,2148298624,2308,7,12,35338
1348330997,5800,163.3500061035156200,19.6228008270263670,36.6004981994628900,248.5948028564453000,116.7444000244140600,19.6191291809082030,30.1775093078613280,55,111,92,84,65,14734,2147746139,2148733586,2149376393,2147792155,2147412461,2148082258,2148741229,2148307739,1970,7,12,12041
1348331073,5801,159.0500030517578000,19.6592998504638670,36.6011009216308600,249.2543029785156200,115.5684967041015600,19.6550693511962900,30.1328296661376950,55,110,93,84,66,14734,2147809837,2148911222,2149653513,2147793097,2147451373,2148179401,2148887277,2148320649,2171,7,13,53605
1348331141,5803,155.0800018310547000,19.7623004913330080,36.6091003417968750,250.3157043457031200,112.2276992797851600,19.7572193145751950,30.0429706573486330,58,113,92,85,64,14730,2147891446,2149104969,2149962322,2147793810,2147482733,2148287350,2149046034,2148330112,1839,7,12,56246
1348331206,5803,151.4299926757812500,19.8356990814209000,36.6194992065429700,248.4100036621093800,110.0671997070312500,19.8232994079589840,30.0991706848144530,58,117,94,84,64,14726,2147984457,2149324580,2150309668,2147796160,2147525229,2148413961,2149239360,2148343378,1327,7,13,46776
1348331282,5806,147.0899963378906200,19.9363994598388670,36.6307983398437500,247.5601043701172000,106.6216964721679700,19.9287109375000000,30.0924797058105470,59,116,95,84,65,14723,2148059008,2149438034,2150447232,2147795492,2147555821,2148464448,2149287643,2148344347,1338,7,12,55375
1348331347,5802,143.3300018310547000,20.0214996337890620,36.6385002136230500,246.4268951416015600,103.8533020019531200,20.0134296417236330,30.1072597503662100,61,121,94,85,65,14723,2147833682,2148658212,2148952868,2147790144,2147458002,2148025929,2148506998,2148291922,1317,7,13,2715
1348331423,5805,138.9499969482422000,20.1124992370605470,36.6464996337890600,245.6128997802734400,100.9250030517578100,20.1030807495117200,30.1057395935058600,65,121,94,85,64,14718,2148154075,2149466102,2150320448,2147798884,2147606162,2148496493,2149246006,2148344118,1496,7,12,62066
1348331491,5803,135.2599945068359400,20.1970996856689450,36.6575012207031250,244.7723999023437500,98.0550765991211000,20.1909599304199220,30.1063995361328120,65,117,94,88,65,14718,2148198390,2149404214,2150017188,2147799570,2147635922,2148468864,2149109988,2148335936,1307,7,12,21468
1348331567,5804,131.3399963378906200,20.2644996643066400,36.6567001342773440,244.7922058105468800,95.8710708618164000,20.2578506469726560,30.0775108337402340,71,123,94,86,65,14703,2148932955,2151137618,2152915318,2147815469,2147950857,2149453632,2150645110,2148443044,1286,7,13,53796
1348331643,5804,127.6600036621093800,20.4081001281738280,36.6734008789062500,243.5715026855468800,91.3151168823242200,20.3974609375000000,30.0738792419433600,78,126,96,87,64,14700,2149223451,2151574198,2153437961,2147824539,2148076672,2149666852,2150871222,2148464694,1343,7,13,50662
1348331730,5804,123.8700027465820300,20.4557991027832030,36.6601982116699200,246.1515045166015600,89.7130432128906200,20.4465599060058600,29.9375495910644530,88,127,96,86,65,14687,2149709348,2152399652,2154590290,2147838189,2148278482,2150107035,2151483693,2148509046,1036,7,13,17041
1348331831,5805,120.0299987792968800,20.5478000640869140,36.6632995605468750,247.5549926757812500,86.6636734008789000,20.5400600433349600,29.8361701965332030,93,125,97,85,65,14682,2150259584,2153219254,2155619483,2147849965,2148483446,2150445696,2151904329,2148551515,757,7,13,26304
1348331940,5804,116.1200027465820300,20.6630992889404300,36.6623001098632800,252.0532989501953000,82.8113937377929700,20.6582202911376950,29.5901603698730470,97,123,94,86,64,14680,2151017362,2154346742,2157017718,2147875648,2148768676,2150895305,2152430939,2148597129,355,7,13,6485
1348332060,5804,112.1800003051757800,20.7982997894287100,36.6591987609863300,264.4808044433594000,78.9781875610351600,20.7758502960205080,29.0199394226074220,92,124,95,87,64,14664,2152030848,2155782144,2158667620,2147899995,2149122505,2151438692,2153080164,2148663908,3298,7,12,38485
1348332179,5804,107.3499984741211000,20.9246997833251950,36.6472015380859400,271.0310058593750000,74.5566711425781200,20.9116096496582030,28.7012290954589840,94,127,95,87,63,14654,2153841298,2158250093,2161436534,2147948589,2149770486,2152382573,2154206537,2148769545,2232,7,12,60918
1348332266,5803,103.4700012207031200,21.2236995697021500,36.6791992187500000,271.1387023925781000,65.4700393676757800,21.1908397674560550,28.5837097167968750,132,137,96,89,63,14608,2155829110,2160937828,2164263140,2147999853,2150430866,2153286436,2155199625,2148867730,2517,7,13,7062
1348332364,5801,100.0899963378906200,21.4416007995605470,36.6791000366210940,273.4533081054687500,59.3334388732910160,21.3796100616455080,28.4168605804443360,103,128,96,87,62,14620,2157808557,2163469586,2166704384,2148054070,2151140790,2154199286,2156176850,2148973686,2457,7,13,63801
1348332442,5805,97.5199966430664000,21.5883998870849600,36.6862983703613300,275.8588867187500000,53.4447708129882800,21.5609092712402340,28.2507305145263670,94,131,96,88,60,14631,2159804635,2166037558,2169279085,2148115766,2151996452,2155295323,2157298102,2149087981,2919,7,12,33931
1348332497,5805,95.2099990844726600,21.7133998870849600,36.6787986755371100,277.5143127441406000,49.3651199340820300,21.6865997314453120,28.1369895935058600,90,130,97,87,62,14633,2161635264,2168267638,2171413184,2148180425,2152897654,2156433993,2158388022,2149198948,3541,7,12,32132
1348332552,5802,93.0899963378906200,21.7971992492675780,36.6883010864257800,279.6318054199219000,46.1043014526367200,21.7871208190917970,28.0164299011230470,91,132,97,90,59,14626,2163376914,2170369389,2173424914,2148233536,2153766098,2157540324,2159442413,2149297645,3262,7,12,9561
1348332607,5802,91.1399993896484400,21.9799995422363280,36.7027015686035160,280.7359008789062500,40.6163101196289060,21.9564094543457030,27.9074192047119140,89,132,96,88,60,14626,2165468772,2172801051,2175758738,2148321280,2154751140,2158768576,2160704521,2149424237,2604,7,13,36132
1348332662,5803,89.2799987792968800,22.0750999450683600,36.7086982727050800,281.4866943359375000,39.0887718200683600,22.0035495758056640,27.8605003356933600,85,131,96,88,59,14626,2167250624,2174916114,2177820004,2148382326,2155727789,2159963200,2161792274,2149530258,2456,7,12,3915
1348332717,5802,87.6600036621093800,22.1604003906250000,36.6882019042968750,281.2767028808594000,35.5488395690918000,22.1128501892089840,27.8252201080322270,85,132,95,88,60,14628,2169192064,2177210624,2180008731,2148460388,2156771712,2161249225,2162981339,2149648521,2623,7,13,64123
1348332794,5801,85.5199966430664000,22.3698997497558600,36.6845016479492200,279.8920898437500000,27.3333702087402340,22.3667507171630860,27.7770996093750000,85,133,97,90,58,14606,2172197440,2180583853,2182906404,2148565805,2158391268,2163136694,2164607872,2149805659,2845,8,12,17564
1348332849,5803,83.7500000000000000,22.5783996582031250,36.6893997192382800,280.5089111328125000,24.2964000701904300,22.4606895446777340,27.7168998718261720,81,136,99,89,60,14610,2174471652,2183203346,2185337389,2148668644,2159892260,2164891830,2166143808,2149957019,30,8,12,60583
1348332904,5802,82.2600021362304700,22.7276000976562500,36.6966018676757800,279.8450927734375000,16.3082103729248050,22.7080192565917970,27.6449108123779300,78,135,98,90,60,14607,2176571364,2185687762,2187854665,2148765001,2161343744,2166577307,2167655040,2150108489,619,7,13,64882
1348333003,5805,80.4499969482421900,22.7910003662109380,36.6953010559082000,280.3644104003906000,13.8152904510498050,22.7852802276611330,27.5951194763183600,81,136,98,89,59,14606,2179445769,2188737033,2190787026,2148908562,2163123382,2168609654,2169507337,2150280850,1140,7,12,46483
1348333115,5805,77.7799987792968800,22.9664993286132800,36.6596984863281250,280.8359985351562500,8.1533155441284180,22.9608707427978500,27.5089702606201170,78,140,99,91,57,14601,2185222162,2195050258,2196431177,2149197961,2167222354,2173215963,2173287323,2150655936,781,8,12,28396
1348333170,5806,75.8499984741211000,23.1854991912841800,36.6610984802246100,281.0833129882812500,1.6462420225143433,23.1628894805908200,27.4211502075195300,76,136,98,91,59,14591,2188278235,2197953334,2198892964,2149422811,2169321179,2175373120,2175040292,2150828672,1017,6,12,63078
1348333225,5804,74.2699966430664000,23.3145008087158200,36.6699981689453100,281.1318054199219000,-2.5516300201416016,23.2933406829834000,27.3687400817871100,75,137,98,92,61,14576,2191637942,2202008420,2202879259,2149592164,2171826569,2178180708,2177306962,2151063232,737,8,12,40470
1348333302,5805,72.3499984741211000,23.4379997253417970,36.6599006652832000,281.4717102050781000,-5.9149241447448730,23.3979396820068360,27.3156299591064450,74,138,99,91,57,14588,2195185920,2205784347,2206335506,2149840731,2174561755,2181052946,2179672493,2151318464,600,8,12,21258
1348333415,5804,69.9800033569336000,23.5678997039794920,36.6525001525878900,280.9454956054687500,-10.2499904632568360,23.5328598022460940,27.2830104827880860,72,138,98,91,60,14592,2200527725,2211117156,2211237824,2150230299,2179019776,2185860141,2183821915,2151728000,1075,8,12,15728
1348333481,5804,68.0400009155273400,23.8880004882812500,36.6425018310546900,279.4240112304687500,-20.9082202911376950,23.8650493621826170,27.2114505767822270,73,139,100,91,56,14580,2206404699,2217501193,2217434834,2150647268,2183308635,2190278061,2187367652,2152112813,1252,7,12,51713
1348333558,5805,66.6399993896484400,24.1959991455078120,36.6450004577636700,278.8591003417969000,-30.5874996185302730,24.1673507690429700,27.1164894104003900,73,137,99,91,58,14578,2209353508,2220794422,2220440301,2150909037,2186444251,2193600877,2189818459,2152363675,818,7,12,1332
1348333790,5805,64.3899993896484400,24.4937992095947270,36.5970001220703100,277.1152038574219000,-40.7113113403320300,24.4841899871826170,27.0604896545410160,68,138,98,92,58,14574,2217493860,2229522688,2228383177,2151581028,2193412196,2200590592,2194989961,2152852461,3100,7,12,33088
1348333988,5801,62.7000007629394500,24.7176990509033200,36.5615005493164060,275.8482971191406000,-47.0802993774414060,24.6838798522949220,27.0318698883056640,68,139,99,90,58,14566,2219340800,2229805732,2227867666,2151809472,2196754185,2203674294,2196866980,2153014381,2884,8,12,34616
1348334098,5804,60.2000007629394500,25.0293998718261720,36.5287017822265600,274.0841979980469000,-56.1308517456054700,24.9681301116943360,26.9902496337890620,68,141,100,92,58,14561,2227149568,2238445622,2236348882,2152767542,2204582134,2211432228,2203183286,2153796425,2509,9,12,47996
1348334430,5801,58.6399993896484400,25.5531997680664060,36.4827003479003900,269.2211914062500000,-74.2517929077148400,25.5390300750732420,26.9590492248535160,65,145,100,93,56,14556,2230625828,2241344850,2238123574,2153057901,2209609499,2216151305,2206092763,2154065060,2766,7,12,60512
1348334728,5805,56.3699989318847660,26.3462009429931640,36.4598007202148440,262.8359069824219000,-99.0001983642578100,26.3228302001953120,26.9112205505371100,66,144,99,92,58,14531,2236707904,2247138944,2243490395,2153904073,2217905773,2224123483,2212173988,2154735643,2016,8,12,16637
1348335390,5803,54.3400001525878900,27.4297008514404300,36.1660003662109400,238.4862976074218800,-133.1194000244140600,27.4117794036865230,27.5069293975830080,66,139,99,93,58,14515,2243233261,2255123894,2251718802,2154987574,2225173604,2231170258,2216828964,2155274843,3472,9,11,14669
1348335974,5804,52.7999992370605500,27.5687999725341800,36.1323013305664060,236.4880981445312500,-137.9488067626953000,27.5667591094970700,27.5355796813964840,64,136,96,90,58,14531,2219364150,2225479899,2220718061,2152973924,2207753005,2210563757,2198440740,2153466349,1242,8,12,13142
1348336233,5802,50.7400016784668000,27.6030006408691400,36.1278991699218750,235.2476959228515600,-139.4553070068359400,27.6151409149169920,27.5719699859619140,61,133,96,89,60,14530,2258806829,2272260032,2270304832,2157615186,2245270683,2251659172,2233419099,2157395273,949,7,12,37202
1348336302,5803,48.8899993896484400,27.6231002807617200,36.1259002685546900,234.9248046875000000,-140.0341033935547000,27.6337394714355470,27.5792007446289060,61,130,95,89,57,14526,2264528768,2278285741,2276637430,2158961892,2254623433,2260163913,2239003830,2158167771,855,8,12,13108
1348336371,5804,46.6899986267089840,27.6319007873535160,36.1262016296386700,234.7337036132812500,-140.4064941406250000,27.6457004547119140,27.5831508636474600,59,130,93,89,59,14531,2270574189,2284218166,2282312347,2160515885,2264527314,2268953874,2244615725,2159062107,630,8,11,22384
1348336428,5802,44.7500000000000000,27.6403007507324220,36.1251983642578100,234.8327941894531200,-140.5991058349609400,27.6518898010253900,27.5764408111572270,58,130,95,90,55,14525,2264580836,2275340425,2272027227,2160682514,2264658596,2267349979,2241748470,2158710464,300,8,11,17475
1348336485,5805,42.5999984741210940,27.6471996307373050,36.1255989074707000,234.4530944824218800,-140.8923950195312500,27.6613197326660160,27.5897006988525400,58,128,94,90,57,14516,2284998555,2298757915,2297448502,2164886564,2287401078,2290438144,2259724160,2161047899,136,7,12,41413
1348336541,5804,40.2400016784668000,27.6602993011474600,36.1211013793945300,234.5032958984375000,-141.2283020019531200,27.6721191406250000,27.5834007263183600,57,128,95,88,59,14519,2296263296,2310040722,2309822272,2169318070,2302280658,2303393206,2268836516,2162934729,144,8,11,43119
1348336574,5805,38.4599990844726560,27.6658000946044920,36.1178016662597660,234.5590972900390600,-141.4244995117187500,27.6784191131591800,27.5785903930664060,56,129,94,88,55,14526,2301247990,2314085952,2313736192,2171768146,2310803419,2310815862,2273677046,2163757394,3541,8,11,50438